RH
38 23 20 23 27 26 23 26 29 28 28 20 18 20 17 16 16 21 35 38 41 40 39 61 84 80 78 75 76 75 71 65 59 56 49 53 57 56 55 59 55 56 51 54 58 62 57 56 54
26 17 24 29 22 24 18 26 33 28 19 18 18 19 18 16 16 21 27 38 42 39 39 49 87 81 82 78 77 74 69 65 59 55 53 56 62 57 59 52 52 58 56 53 59 63 62 56 61
22 17 20 23 28 23 24 29 24 19 18 21 20 15 15 16 16 20 33 38 43 40 40 47 87 82 81 78 76 74 70 67 61 57 59 60 69 57 53 55 57 57 60 57 60 63 60 63 64
22 19 18 21 19 24 29 27 19 21 20 21 18 18 14 18 20 28 35 38 39 38 39 68 87 82 82 80 78 74 70 66 62 60 59 62 70 64 63 61 59 57 61 61 61 60 61 65 65
21 20 25 26 24 16 16 18 17 22 21 20 21 20 17 23 32 32 38 41 38 39 41 49 84 82 81 80 76 74 70 65 63 59 62 64 65 71 62 63 60 58 60 62 62 62 62 61 64
27 23 28 32 29 23 19 16 20 20 20 20 19 18 19 26 30 36 42 40 39 42 46 44 78 86 85 81 77 75 71 67 64 60 59 64 69 66 64 63 61 62 63 60 65 63 66 65 64
34 30 30 30 29 29 18 19 19 21 20 21 18 20 16 21 34 40 42 40 44 44 46 45 46 64 90 86 84 80 75 72 67 64 65 65 66 67 63 62 65 66 69 66 66 71 72 72 71
28 29 33 29 28 32 20 18 24 22 20 18 17 19 19 25 31 40 43 42 44 47 47 44 45 47 53 55 85 85 83 81 78 78 78 78 78 75 69 74 72 73 72 71 71 70 73 74 74
29 34 35 33 32 28 19 27 25 23 23 18 17 18 19 27 34 39 41 42 44 48 48 48 45 47 49 48 58 82 85 84 83 78 83 77 48 48 54 70 78 75 74 73 72 72 73 79 82
36 39 35 28 26 27 26 29 30 29 23 21 16 16 16 18 22 28 32 34 41 42 45 47 49 48 51 50 52 55 48 50 48 46 46 42 42 45 56 71 81 79 78 79 77 76 77 81 48
39 40 32 31 28 26 30 30 29 31 31 22 21 17 16 18 18 19 23 30 30 32 37 44 46 48 48 51 50 48 49 48 47 49 48 45 43 44 49 51 52 53 72 52 53 51 48 47 46
44 35 31 32 32 34 33 30 32 30 30 23 22 21 21 18 17 17 20 26 31 33 34 37 42 46 49 48 52 48 50 50 49 49 49 48 47 47 46 46 48 52 48 48 50 47 46 48 47
44 34 32 31 33 33 34 36 33 32 25 22 22 23 22 18 18 17 27 32 33 36 36 37 38 43 45 51 50 50 49 51 48 52 51 49 49 48 46 47 47 48 46 47 49 49 48 48 47
38 39 35 32 34 33 39 32 34 26 22 21 20 22 20 20 21 26 32 34 35 36 36 36 38 39 41 47 51 50 50 49 51 51 52 53 52 51 52 52 51 50 49 48 49 50 51 51 48
38 46 40 37 36 35 33 37 33 24 19 20 18 19 23 29 29 32 34 32 31 28 29 30 31 33 41 44 46 50 51 52 52 52 52 55 55 56 57 55 55 51 49 51 51 51 51 52 51
49 52 53 35 35 34 34 41 25 21 20 21 20 19 27 33 32 33 34 34 33 34 36 38 39 34 40 46 48 47 48 49 50 50 51 54 53 55 56 55 53 50 52 52 54 55 56 56 56
59 59 54 40 34 34 35 35 24 21 21 20 17 20 26 30 31 33 34 35 35 35 38 43 44 43 48 52 50 51 51 48 48 48 48 52 52 54 55 55 56 55 57 57 57 56 57 61 60
58 56 38 44 32 33 35 34 25 21 22 21 18 21 26 29 33 35 35 36 35 38 42 44 50 51 51 50 50 50 52 54 53 54 54 55 53 54 54 50 45 46 47 46 47 50 49 50 51
40 38 44 38 32 35 34 33 28 23 23 21 20 22 26 30 35 34 35 34 35 36 39 46 52 50 46 48 52 51 49 46 42 39 35 34 34 34 36 36 34 34 36 36 35 37 39 38 38
40 43 43 36 34 34 34 36 30 25 22 21 20 23 28 33 32 35 35 34 33 35 35 38 46 54 54 56 52 43 41 40 40 40 38 34 33 33 33 35 35 35 35 36 38 40 43 39 37
50 48 43 41 41 38 37 37 28 24 24 25 22 23 28 31 32 33 35 40 41 41 40 40 41 44 42 40 39 40 42 41 41 40 39 37 34 33 34 36 35 36 38 39 40 40 46 44 40
57 42 41 50 57 55 37 44 31 22 24 28 26 30 31 33 32 34 38 41 45 47 46 45 43 43 41 40 41 42 42 45 42 38 37 35 34 32 29 30 32 32 32 34 35 30 36 36 41
44 47 46 52 57 56 44 45 29 28 25 27 29 32 33 34 35 39 43 46 47 52 51 47 45 43 42 40 39 39 42 41 38 34 34 32 30 30 26 26 29 28 27 29 31 31 31 32 37
49 48 46 42 46 57 39 38 29 22 23 27 30 34 35 35 37 41 46 47 51 54 52 50 46 45 43 42 40 41 40 36 34 33 28 26 23 25 25 23 23 24 26 27 25 28 33 40 39
47 52 93 87 74 51 37 39 27 23 24 25 31 34 35 38 40 44 46 47 49 53 54 48 44 44 40 39 37 36 35 33 30 26 23 22 20 22 24 23 20 21 24 23 25 32 40 43 41
59 50 50 59 53 44 42 41 24 24 27 27 25 31 37 39 39 42 44 48 51 52 49 45 44 43 38 35 32 29 28 26 22 22 20 19 19 20 22 22 20 20 20 20 22 27 34 34 33
76 66 39 44 44 38 34 31 26 28 30 32 29 35 41 40 42 42 46 47 49 48 47 46 45 43 37 32 26 23 21 21 21 19 18 20 19 17 19 20 19 20 20 20 23 24 23 24 26
66 51 71 47 51 49 38 37 28 26 26 35 33 37 39 40 41 43 45 49 48 46 46 43 40 38 34 27 23 21 18 16 17 17 19 20 18 18 19 18 18 18 18 18 20 20 21 22 25
66 83 73 45 41 38 35 31 24 26 27 30 31 34 38 42 43 44 45 50 48 45 43 39 39 36 30 24 21 20 18 16 16 17 17 18 17 18 18 17 17 17 18 18 18 19 21 25 28
50 58 54 57 50 39 34 29 24 28 30 33 32 35 38 40 42 44 48 51 47 44 40 36 36 32 28 22 19 19 19 17 16 17 18 17 17 17 18 18 18 18 18 19 20 21 23 27 30
Wind_Speed
9 6 2 4 5 5 7 4 1 2 3 2 8 8 8 8 5 5 4 6 4 8 11 14 12 14 13 12 13 11 8 6 5 4 3 5 5 4 2 2 3 2 2 5 6 9 9 7 6
8 3 0 2 6 7 6 2 5 2 9 12 7 5 7 2 1 2 3 9 4 9 11 13 11 12 13 13 14 12 9 6 5 5 4 6 7 5 6 1 2 5 6 4 5 8 9 8 9
6 4 3 3 2 6 3 1 5 9 11 5 3 3 3 1 2 3 5 10 6 9 10 9 11 13 13 14 13 11 9 7 5 5 6 6 8 5 2 1 3 3 3 3 3 8 7 9 10
4 3 4 6 5 3 5 4 6 10 0 0 5 8 3 5 2 4 4 8 6 8 9 12 10 13 12 12 11 10 8 6 5 6 7 8 9 6 7 5 1 1 2 4 4 4 7 8 7
1 3 5 5 4 4 6 5 8 7 7 7 6 2 2 4 3 2 4 6 5 7 7 10 10 11 11 12 11 8 7 6 5 6 8 9 6 8 5 6 4 1 3 4 5 6 7 8 9
4 3 8 9 5 4 6 3 5 6 5 5 6 8 2 4 3 3 4 6 4 6 7 7 9 7 9 12 11 9 8 6 6 7 8 3 5 4 4 5 2 2 4 5 6 8 8 8 9
8 7 11 9 8 6 2 1 4 8 8 1 10 5 3 8 7 2 4 5 5 5 7 7 9 9 8 9 10 10 9 7 8 7 8 4 1 2 2 2 4 5 7 7 8 11 11 11 10
5 5 9 9 8 5 1 3 5 6 6 9 3 3 2 10 6 2 3 4 6 6 7 7 7 8 10 11 10 10 9 8 7 6 6 5 4 3 4 3 5 5 8 7 10 12 12 11 11
3 8 11 13 9 2 3 4 2 5 10 7 6 6 6 5 3 2 4 6 6 6 8 7 8 8 8 8 7 9 10 9 8 9 8 6 8 6 6 1 4 7 8 10 11 12 12 11 12
10 11 16 8 8 5 3 8 8 7 10 12 9 5 5 6 5 5 5 6 9 9 10 9 9 9 8 6 8 9 7 8 8 7 7 5 6 6 5 5 5 9 10 11 12 13 13 11 9
9 16 10 9 9 5 6 10 4 10 12 7 12 13 11 12 11 8 6 8 9 9 7 10 10 9 10 8 6 5 5 5 5 7 6 6 4 5 5 5 5 6 8 7 7 7 7 8 8
13 15 11 8 5 5 9 8 12 14 21 16 16 16 15 13 9 8 8 6 9 8 8 8 10 10 11 7 7 6 5 5 5 5 6 5 4 5 5 5 6 6 5 7 7 6 8 10 11
18 15 13 12 9 10 10 14 18 20 23 18 17 13 11 11 11 8 5 3 5 6 7 8 9 10 9 10 7 7 6 5 5 5 5 5 5 5 5 5 5 6 6 6 7 7 8 9 11
13 17 16 12 12 12 12 18 4 20 17 18 12 13 9 8 7 6 3 2 4 4 5 6 9 10 10 10 10 6 5 5 5 4 4 6 5 4 5 5 6 6 6 6 7 8 9 9 10
21 13 13 15 14 15 7 18 20 19 12 15 11 8 4 3 3 3 4 4 3 3 4 6 7 10 11 10 8 6 4 4 4 4 5 5 5 5 6 6 6 6 6 8 8 8 9 9 9
19 15 18 18 15 13 10 19 13 3 3 4 3 2 2 4 4 4 5 4 3 4 5 6 4 5 8 7 4 3 2 3 2 2 3 5 5 5 6 5 6 6 6 6 7 8 9 9 10
15 16 22 19 13 12 13 14 8 6 12 13 10 3 4 5 5 7 7 5 6 6 7 7 6 5 6 5 4 4 3 1 2 1 2 5 4 5 5 5 5 7 5 6 6 7 8 9 10
15 17 14 18 14 13 17 18 15 14 10 11 6 7 6 6 6 6 7 7 6 8 9 10 9 9 9 7 7 7 6 6 6 7 7 8 7 8 5 5 7 6 5 6 7 9 8 9 9
19 18 15 14 9 6 14 19 14 16 12 12 9 9 8 8 7 7 8 8 10 11 12 12 12 10 7 8 8 8 8 8 9 9 12 12 10 11 10 7 8 8 7 8 9 9 11 9 10
19 18 16 11 5 7 14 19 17 18 14 9 10 11 12 11 9 9 10 10 11 12 13 13 13 13 10 7 8 8 9 9 8 8 10 11 11 11 9 9 8 9 7 8 9 9 9 9 9
15 17 15 12 6 10 10 20 15 7 5 4 6 10 12 14 14 11 11 11 10 12 12 13 14 14 11 11 9 8 8 7 7 7 7 9 10 11 10 10 8 8 7 7 9 9 10 9 10
20 12 9 7 5 6 3 6 9 9 6 6 10 12 13 14 13 12 11 12 11 11 11 13 13 13 12 11 10 12 8 8 7 6 7 6 10 10 11 10 9 9 7 8 8 9 9 10 10
11 13 11 7 8 4 9 7 3 3 7 9 12 14 14 14 14 13 12 11 10 9 10 11 13 14 13 12 11 9 9 7 6 5 6 7 7 8 10 10 9 9 7 9 10 10 10 8 9
12 12 7 4 2 9 11 9 5 4 3 5 12 15 15 15 14 13 12 11 11 9 10 11 13 12 12 12 12 12 11 8 6 6 5 5 5 6 9 9 8 8 8 9 9 10 10 9 9
16 16 4 6 6 6 4 7 9 3 2 4 16 16 16 15 15 14 13 12 11 10 10 10 11 12 11 12 11 10 9 8 7 7 6 7 6 6 9 10 10 8 9 9 9 10 9 9 9
17 15 4 7 7 6 4 6 2 5 2 3 10 16 16 16 14 14 13 12 11 10 10 10 10 11 10 10 10 9 8 5 5 7 6 5 6 7 9 9 9 9 9 9 10 8 8 9 9
5 10 4 2 1 4 5 4 4 3 3 3 10 17 17 17 15 14 13 11 11 10 10 10 10 9 8 8 7 8 7 7 6 7 6 5 6 6 8 9 10 10 11 11 11 9 11 11 10
5 7 4 3 6 5 4 3 2 3 2 4 12 18 18 16 15 13 12 12 10 10 9 9 9 9 8 7 7 6 7 7 6 5 6 6 6 7 9 10 10 11 11 12 12 10 11 12 10
7 4 2 5 3 2 4 4 3 5 6 4 10 17 17 16 15 13 12 11 10 10 9 9 8 8 7 6 6 6 6 5 5 5 6 7 7 8 9 10 11 11 12 12 12 13 13 14 14
10 12 11 5 6 1 4 3 3 5 5 3 8 15 15 16 15 13 13 12 11 10 9 8 7 7 6 5 5 5 4 4 5 5 6 7 8 8 9 10 11 12 12 13 13 13 14 15 16
Wind_Direction
312 327 301 239 240 241 226 196 352 179 198 329 297 279 319 307 316 10 98 152 119 156 166 177 184 173 163 162 161 166 172 185 203 223 215 219 207 211 170 127 44 39 36 35 350 350 338 350 354
319 298 202 298 252 231 202 193 200 310 315 309 272 229 243 318 294 82 175 163 142 156 166 181 166 172 162 168 171 164 173 187 207 229 246 249 233 192 200 88 3 354 11 7 359 335 330 345 348
295 318 277 279 243 257 279 180 324 320 309 266 268 245 304 10 84 25 66 154 153 157 168 161 160 165 175 178 175 163 175 191 219 230 254 269 242 209 180 144 127 27 11 7 352 331 308 340 330
315 207 163 259 273 249 265 316 335 325 35 231 319 265 195 26 17 41 102 155 165 161 170 140 171 176 187 183 159 167 176 204 224 245 251 265 274 198 157 145 95 27 352 329 327 330 300 293 313
295 249 251 249 267 272 264 299 319 311 314 303 332 295 301 66 14 57 129 161 169 162 170 164 184 192 194 177 165 172 184 204 233 242 246 258 265 225 189 169 146 330 310 314 306 295 292 293 291
236 280 239 252 260 269 283 268 301 299 312 309 323 305 56 45 357 72 145 158 169 163 168 174 183 204 205 170 175 181 196 211 227 243 269 4 37 29 3 141 169 258 288 293 276 274 266 267 275
256 244 259 262 270 279 280 269 290 324 307 205 328 271 80 48 25 80 142 145 159 166 178 183 188 196 185 191 186 186 201 216 232 244 259 322 69 63 67 197 266 269 276 289 292 283 273 264 263
257 254 241 236 245 271 167 272 316 287 310 325 285 254 76 23 22 135 156 164 167 178 196 198 202 201 200 197 199 191 203 211 230 242 260 274 264 234 232 260 225 297 291 288 294 300 296 288 276
231 231 235 238 220 230 153 306 355 304 280 287 274 277 11 10 36 185 195 192 190 203 203 207 209 214 215 220 181 200 205 215 227 231 225 251 249 244 245 309 298 277 276 275 278 281 288 295 281
218 230 233 243 239 239 279 297 313 294 285 280 264 248 276 337 328 304 251 228 211 207 203 207 212 217 218 217 223 217 220 223 224 230 242 245 256 264 301 306 266 266 269 269 266 266 271 272 267
203 234 225 227 238 263 281 282 289 289 279 272 300 303 306 306 302 283 278 244 227 215 211 208 212 215 221 219 219 218 219 223 231 239 242 251 258 257 247 265 254 256 218 264 248 260 254 271 280
225 233 226 232 229 250 267 295 278 275 273 284 287 297 299 294 304 297 293 251 225 222 232 221 218 211 223 221 215 222 220 218 229 226 234 241 243 249 260 264 267 267 272 280 282 284 285 282 278
226 226 225 239 251 257 275 269 278 279 274 280 275 278 273 293 299 299 290 256 246 238 240 233 226 222 219 219 224 222 225 217 231 234 239 241 246 261 271 274 284 287 289 285 288 288 286 285 284
205 235 241 241 249 257 268 275 303 266 286 287 278 263 281 300 316 291 305 296 259 273 257 254 238 229 221 218 219 222 223 234 232 245 245 241 256 275 292 291 285 283 283 285 286 284 287 283 281
227 228 231 242 246 248 263 267 251 275 299 283 272 262 274 5 5 13 348 324 340 305 316 297 278 242 223 219 218 225 224 248 251 254 268 268 270 276 279 280 283 287 287 294 292 291 287 284 285
211 234 237 230 226 241 221 261 266 270 281 306 289 208 123 77 49 34 15 351 5 342 350 348 314 238 214 211 196 205 218 250 272 295 287 271 275 279 285 288 292 309 311 306 303 305 302 300 303
215 210 223 237 207 231 218 263 253 213 289 274 251 201 144 118 78 51 35 33 34 21 23 34 42 101 134 147 139 139 100 80 57 9 342 351 339 330 308 318 328 330 321 320 318 313 314 311 310
180 212 220 226 221 225 228 246 258 281 273 267 234 186 158 134 83 64 60 60 58 54 56 68 70 84 101 111 114 101 90 80 65 59 56 52 49 43 35 32 22 5 357 353 346 333 323 310 309
201 211 215 215 206 242 247 262 263 276 271 250 218 191 160 129 98 86 79 80 77 64 64 60 70 74 97 106 100 94 93 87 76 65 60 56 48 45 37 29 20 10 7 1 348 339 331 322 321
215 202 214 235 195 251 263 271 277 270 261 251 215 183 162 141 125 105 95 88 79 75 71 69 68 65 68 78 81 92 91 78 78 70 58 50 46 39 36 24 15 9 353 353 348 344 332 321 330
199 197 200 222 179 241 277 274 250 203 189 181 208 174 160 153 140 131 114 96 87 78 76 77 77 79 76 88 97 99 97 86 74 57 55 42 42 34 27 21 9 2 353 348 342 341 332 320 318
193 199 192 186 262 246 324 288 240 234 226 205 168 166 160 152 141 133 120 105 92 85 83 80 78 79 74 83 84 81 76 77 60 53 46 45 35 33 20 13 6 0 350 348 341 341 333 330 324
203 165 210 233 257 292 222 256 238 186 233 194 173 166 163 158 147 137 125 113 101 96 89 88 83 77 75 72 72 76 76 73 59 47 38 31 30 27 16 7 1 357 354 349 340 337 334 327 326
140 141 123 122 236 242 228 233 266 168 79 150 167 170 162 159 150 138 131 129 114 110 100 94 89 82 78 77 75 74 73 65 56 40 28 18 15 11 16 0 1 360 355 348 339 338 335 330 327
172 166 144 185 205 242 146 207 261 178 230 154 174 175 169 161 157 151 149 138 128 117 108 102 98 93 88 84 77 76 73 65 54 31 23 11 6 6 5 359 357 355 349 342 336 334 328 324 324
187 172 206 186 194 167 192 229 134 80 307 201 195 174 166 166 166 163 152 142 134 127 118 114 106 98 90 86 83 75 62 52 43 34 19 14 5 2 356 350 345 343 340 338 336 321 322 318 310
170 201 110 142 69 228 168 227 201 140 81 177 186 170 173 172 169 161 152 147 140 132 120 116 112 104 95 88 81 72 60 52 41 28 19 8 5 349 346 343 340 340 339 335 329 321 316 319 319
144 162 167 251 189 214 185 243 165 160 14 141 177 182 174 169 167 159 156 149 139 128 120 116 112 107 98 85 73 66 59 46 32 23 15 6 355 349 343 342 339 335 334 329 325 318 320 317 316
155 161 164 296 295 251 163 134 87 303 311 257 184 183 171 169 168 164 159 149 140 135 135 127 124 121 106 93 81 67 54 39 27 19 8 356 347 346 339 338 334 329 325 323 320 321 317 316 311
173 170 186 206 174 254 338 116 147 316 311 236 178 176 171 169 168 165 158 152 152 147 145 138 135 122 107 93 79 63 43 21 18 8 5 351 344 339 337 331 324 321 321 323 322 319 319 313 311